Location: Banios
(43.0451°N, 0.2335°E)
Time: 12:48:09
(UTC+00:00)

Cosmos 2278 Rocket - Pass Details

Date: 25 January 2021
Orbit: 839 x 847 km, 71.0° (Epoch: 25 February)

Event Time Altitude Azimuth Distance (km) Brightness Sun altitude
Exits shadow 04:03:06 37° 83° (E) 1,283 3.5 -36.0°
Drops below altitude 10° 04:07:24 10° 128° (SE) 2,463 5.1 -35.3°
Sets 04:09:59 0° 135° (SE) 3,393 5.8 -34.8°
